SCP
0 0 0 0 0 0 0 0 0 0 0 0 0 0 0 0 0 0 0 0 0 0 0 0 0 0 0 0 0 0 0 0 0 0 0 0 0 0 0 0 0 0 0 0
0 0 0 0 0 0 0 0 0 0 0 0 0 0 0 0 0 0 0 0 0 0 0 0 0 0 0 0 0 0 0 0 0 0 0 0 0 0 0 0 0 0 0 0
0 0 0 0 0 0 0 0 0 0 0 0 0 0 0 0 0 0 0 0 0 0 0 0 0 0 0 0 0 0 0 0 0 0 0 0 0 0 0 0 0 0 0 0
0 0 0 0 0 0 0 0 0 0 0 0 0 0 0 0 0 0 0 0 0 0 0 0 0 0 0 0 0 0 0 0 0 0 0 0 0 0 0 0 0 0 0 0
0 0 0 0 0 0 0 0 0 0 0 0 0 0 0 0 0 0 0 0 0 0 0 0 0 0 0 0 0 0 0 0 0 0 0 0 0 0 0 0 0 0 0 0
0 0 0 0 0 0 0 0 0 0 0 0 0 0 0 0 0 0 0 0 0 0 0 0 0 0 0 0 0 0 0 0 0 0 0 0 0 0 0 0 0 0 0 0
0 0 0 0 0 0 0 0 0 0 0 0 0 0 0 0 0 0 0 0 0 0 0 0 0 0 0 0 0 0 0 0 0 0 0 0 0 0 0 0 0 0 0 0
0 0 0 0 0 0 0 0 0 0 0 0 0 0 0 0 0 0 0 0 0 0 0 0 0 0 0 0 0 0 0 0 0 0 0 0 0 0 0 0 0 0 0 0
0 0 0 0 0 0 0 0 0 0 0 0 0 0 0 0 0 0 0 0 0 0 0 0 0 0 0 0 0 0 0 0 0 0 0 0 0 0 0 0 0 0 0 0
0 0 0 0 0 0 0 0 0 0 0 0 0 0 0 0 0 0 0 0 0 0 0 0 0 0 0 0 0 0 0 0 0 0 0 0 0 0 0 0 0 0 0 0
0 0 0 0 0 0 0 0 0 0 0 0 0 0 0 0 0 0 0 0 0 0 0 0 0 0 0 0 0 0 0 0 0 0 0 0 0 0 0 0 0 0 0 0
0 0 0 0 0 0 0 0 0 0 0 0 0 0 0 0 0 0 0 0 0 0 0 0 0 0 0 0 0 0 0 0 0 0 0 0 0 0 0 0 0 0 0 0
0 0 0 0 0 0 0 0 0 0 0 0 0 0 0 0 0 0 0 0 0 0 0 0 0 0 0 0 0 0 0 0 0 0 0 0 0 0 0 0 0 0 0 0
0 0 0 0 0 0 0 0 0 0 0 0 0 0 0 0 0 0 0 0 0 0 0 0 0 0 0 0 0 0 0 0 0 0 0 0 0 0 0 0 0 0 0 0
0 0 0 0 0 0 0 0 0 0 0 0 0 0 0 0 0 0 0 0 0 0 0 0 0 0 0 0 0 0 0 0 0 0 0 0 0 0 0 0 0 0 0 0
0 0 0 0 0 0 0 0 0 0 0 0 0 0 0 0 0 0 0 0 0 0 0 0 0 0 0 0 0 0 0 0 0 0 0 0 0 0 0 0 0 0 0 0
0 0 0 0 0 0 0 0 0 0 0 0 0 0 0 0 0 0 0 0 0 0 0 0 0 0 0 0 0 0 0 0 0 0 0 0 0 0 0 0 0 0 0 0
0 0 0 0 0 0 0 0 0 0 0 0 0 0 0 0 0 0 0 0 0 0 0 0 0 0 0 0 0 0 0 0 0 0 0 0 0 0 0 0 0 0 0 0
0 0 0 0 0 0 0 0 0 0 0 0 0 0 0 0 0 0 0 0 0 0 0 0 0 0 0 0 0 0 0 0 0 0 0 0 0 0 0 0 0 0 0 0
0 0 0 0 0 0 0 0 0 0 0 0 0 0 0 0 0 0 0 0 0 0 0 0 0 0 0 0 0 0 0 0 0 0 0 0 0 0 0 0 0 0 0 0
0 0 0 0 0 0 0 0 0 0 0 0 0 0 0 0 0 0 0 0 0 0 0 0 0 0 0 0 0 0 0 0 0 0 0 0 0 0 0 0 0 0 0 0
0 0 0 0 0 0 0 0 0 0 0 0 0 0 0 0 0 0 0 0 0 0 0 0 0 0 0 0 0 0 0 0 0 0 0 0 0 0 0 0 0 0 0 0
0 0 0 0 0 0 0 0 0 0 0 0 0 0 0 0 0 0 0 0 0 0 0 0 0 0 0 0 0 0 0 0 0 0 0 0 0 0 0 0 0 0 0 0
0 0 0 0 0 0 0 0 0 0 0 0 0 0 0 0 0 0 0 0 0 0 0 0 0 0 0 0 0 0 0 0 0 0 0 0 0 0 0 0 0 0 0 0
0 0 0 0 0 0 0 0 0 0 0 0 0 0 0 0 0 0 0 0 0 0 0 0 0 0 0 0 0 0 0 0 0 0 0 0 0 0 0 0 0 0 0 0
0 0 0 0 0 0 0 0 0 0 0 0 0 0 0 0 0 0 0 0 0 0 0 0 0 0 0 0 0 0 0 0 0 0 0 0 0 0 0 0 0 0 0 0
0 0 0 0 0 0 0 0 0 0 0 0 0 0 0 0 0 0 0 0 0 0 0 0 0 0 0 0 0 0 0 0 0 0 0 0 0 0 0 0 0 0 0 0
Wind_Speed
12 13 14 16 17 16 15 15 15 16 12 3 11 10 7 4 0 3 3 2 1 1 2 2 3 2 3 4 3 2 2 3 3 3 3 5 5 5 4 4 5 5 4 4
12 10 12 15 14 13 13 12 13 12 3 8 10 9 8 6 5 5 4 3 1 1 1 1 2 2 2 3 4 4 4 4 3 2 3 4 5 5 4 4 5 5 6 6
10 8 10 9 5 8 9 8 8 8 2 10 9 9 8 7 6 5 4 2 2 4 4 2 1 0 2 3 3 3 3 3 3 3 4 4 4 4 4 4 4 5 6 6
8 9 9 1 1 5 7 5 3 0 7 9 8 7 7 8 7 5 3 1 2 4 3 2 2 2 3 4 3 2 2 3 4 5 6 5 4 4 3 3 4 5 6 6
7 9 10 2 3 4 6 5 2 3 6 9 8 8 9 9 7 4 2 1 3 4 3 1 3 3 3 3 3 2 2 3 3 4 4 3 4 4 3 3 5 4 5 6
9 10 9 3 3 0 5 5 4 4 6 9 10 8 6 10 8 5 3 2 2 3 3 1 1 1 1 1 1 2 3 3 3 2 2 2 1 1 1 2 3 3 4 6
8 8 6 5 3 4 6 4 4 3 6 8 8 2 7 8 6 4 2 1 1 1 3 2 2 2 1 3 4 5 5 4 4 3 2 2 3 3 2 0 3 4 3 3
5 6 2 5 4 6 5 5 3 4 6 7 5 4 5 6 5 4 4 3 2 3 4 2 2 2 3 4 5 5 4 4 4 5 4 4 3 3 3 2 3 4 4 4
5 5 3 4 7 3 4 5 4 6 7 7 7 6 6 5 4 3 3 3 3 5 5 4 4 4 5 5 5 5 4 4 4 5 6 7 7 6 5 5 5 4 4 4
8 8 6 7 9 7 6 5 6 8 8 8 8 7 6 5 5 4 4 4 5 5 5 5 5 4 4 5 6 6 5 3 3 3 4 6 6 6 6 6 6 6 6 6
12 12 8 9 11 11 9 8 9 9 9 9 8 7 6 5 5 5 5 5 4 4 5 5 5 6 5 5 4 4 4 4 4 4 3 3 4 4 5 4 4 3 3 3
11 9 8 6 8 14 13 13 12 11 11 9 8 7 7 6 6 6 6 6 5 5 5 6 6 7 6 3 1 1 0 2 3 4 4 4 5 5 4 3 3 3 2 1
12 12 10 8 6 14 15 15 14 13 13 11 10 9 8 7 7 7 7 7 7 6 7 7 6 6 5 3 1 1 2 3 3 3 4 4 5 5 5 5 4 2 4 4
14 14 13 11 10 13 16 16 15 15 14 13 12 11 9 9 9 9 9 9 8 7 7 6 6 6 5 4 2 2 1 3 1 2 2 3 3 2 3 5 6 6 7 8
16 16 16 13 12 14 15 16 16 16 16 15 13 13 12 12 11 11 11 11 10 9 8 7 7 6 5 4 3 3 3 2 1 2 1 2 1 1 1 1 2 1 1 7
12 13 16 16 13 15 17 18 18 17 17 16 15 14 14 13 12 12 12 12 12 12 10 9 8 7 7 6 5 4 3 2 1 2 2 2 1 0 1 1 2 3 4 5
12 12 15 17 17 17 19 19 18 18 18 18 17 16 15 14 13 13 13 13 13 12 11 11 10 9 9 10 9 7 6 7 6 6 3 2 1 1 2 3 3 4 4 4
11 14 16 17 18 18 19 20 19 18 18 18 18 17 16 15 15 15 15 14 14 14 13 12 11 10 10 12 10 8 7 7 8 7 4 4 3 3 4 4 4 4 4 2
9 13 17 19 20 18 18 19 19 19 19 18 18 17 16 16 16 16 15 15 15 15 15 15 12 12 12 13 11 10 9 9 8 8 7 4 5 6 5 5 5 5 5 5
11 12 14 19 21 20 18 18 18 18 18 18 18 17 16 15 15 15 15 15 14 13 14 15 15 14 14 13 13 12 12 11 10 9 8 8 8 7 7 7 6 6 5 5
14 14 12 14 17 18 19 19 18 18 18 18 18 17 17 16 15 14 14 14 14 14 14 12 13 13 13 12 14 13 12 12 11 10 10 9 8 7 6 6 7 6 6 6
13 13 12 9 11 13 14 15 16 17 18 17 18 18 17 15 15 14 15 12 11 13 13 12 13 14 13 13 13 13 13 13 11 10 9 7 6 5 6 8 8 7 7 7
11 12 11 9 7 9 11 12 14 14 16 17 17 17 17 15 13 12 12 12 11 12 12 12 12 15 16 14 13 13 13 13 11 9 7 5 5 6 8 10 9 8 7 7
12 12 10 8 6 5 8 9 10 10 13 14 14 15 14 13 12 12 12 12 13 14 13 12 13 16 17 14 13 13 12 10 8 7 6 6 7 9 10 9 9 7 7 7
13 12 12 11 8 6 4 5 6 8 10 10 12 13 12 11 12 12 12 13 13 15 13 13 15 16 14 14 13 12 9 8 7 7 7 7 9 10 9 8 8 7 6 6
15 13 11 10 9 8 7 6 6 6 7 8 8 8 8 8 11 11 9 12 15 14 13 11 13 14 14 14 13 11 9 8 8 7 7 8 10 10 8 7 8 6 6 5
14 13 10 10 10 10 9 8 8 8 8 7 7 6 7 8 9 10 12 11 11 12 13 12 11 12 12 12 10 10 9 8 7 7 7 8 8 7 7 7 6 5 5 4
Wind_Direction
285 280 275 273 273 277 278 278 277 283 295 192 166 155 144 132 171 271 267 280 303 321 335 344 6 5 355 357 12 16 27 36 35 51 87 91 83 78 72 58 51 40 37 37
287 286 288 277 273 276 279 281 285 287 306 98 123 135 143 160 192 233 247 254 280 322 319 332 352 12 36 49 38 45 61 57 46 77 111 109 102 99 93 81 70 58 45 41
297 315 292 278 281 276 281 292 296 296 160 142 152 158 161 172 200 225 241 241 344 351 343 320 309 353 98 97 99 79 62 49 39 45 74 86 91 91 92 101 95 69 56 53
291 299 286 319 300 282 282 283 287 66 148 167 173 175 184 191 202 210 210 209 22 360 360 316 262 199 158 166 173 156 97 59 49 52 58 57 61 72 84 95 83 68 64 69
288 293 295 249 221 258 278 286 216 213 174 175 174 187 200 199 208 206 199 283 347 358 11 291 235 207 195 191 185 158 114 87 69 76 86 72 54 39 26 44 61 65 71 76
285 296 298 10 103 166 285 265 136 188 183 177 190 219 179 167 184 188 201 244 315 7 50 119 138 303 256 191 140 100 85 79 71 81 120 139 138 24 346 11 35 30 64 76
282 285 295 76 139 211 262 31 80 213 189 189 210 331 106 148 166 173 188 209 251 89 103 79 45 19 19 52 65 67 64 65 54 51 91 157 195 203 221 251 35 8 6 57
276 282 337 126 209 243 325 9 302 220 188 188 177 141 150 162 168 182 197 194 185 135 115 99 95 111 94 72 68 71 70 60 34 13 12 44 89 138 131 85 48 4 350 346
294 308 14 226 240 260 303 287 241 194 180 178 178 179 175 174 178 181 196 186 165 151 147 151 157 151 117 97 94 94 89 69 35 21 30 37 44 56 75 67 49 23 4 354
267 266 255 231 226 223 228 237 199 186 180 184 188 182 175 171 167 172 177 175 173 171 162 141 146 148 125 124 130 126 117 105 79 54 47 47 44 41 48 50 49 38 27 15
261 270 266 235 222 212 202 198 190 191 189 191 190 184 178 173 165 159 155 160 173 169 151 135 139 149 156 154 146 136 147 157 156 156 147 116 93 74 71 70 78 81 54 26
265 272 253 257 213 202 196 195 193 195 196 196 197 188 181 175 165 163 158 159 166 161 151 148 152 153 158 165 174 320 27 128 150 161 161 156 141 134 111 89 118 147 163 202
258 262 257 252 220 198 199 198 194 194 195 195 196 192 183 176 172 171 167 168 168 164 157 159 163 166 173 183 219 342 15 63 124 133 133 138 145 154 152 128 83 126 184 203
251 258 253 236 222 204 203 200 197 197 198 197 193 193 190 184 181 184 184 181 179 176 175 178 187 187 189 190 217 246 217 128 169 126 121 124 128 153 157 159 162 160 182 199
254 237 236 235 221 203 202 201 200 201 203 202 196 195 198 197 194 194 194 192 192 196 201 204 212 213 207 212 215 218 218 162 139 103 121 90 95 105 78 33 337 310 194 175
262 235 226 229 216 201 200 203 204 205 205 205 203 201 205 207 206 203 199 200 203 210 213 218 225 227 215 208 195 192 185 81 257 212 173 154 150 341 10 338 316 329 326 339
253 230 218 218 215 208 203 205 207 206 205 205 206 206 209 211 213 213 211 208 212 219 221 223 228 228 212 201 207 210 192 169 201 236 215 204 256 293 307 307 319 326 328 47
254 243 230 221 218 213 207 206 207 207 207 205 205 209 212 214 218 220 219 217 215 221 226 227 225 219 212 206 210 226 215 203 204 231 226 223 247 261 269 281 294 293 302 156
284 265 252 238 228 219 211 207 206 206 206 207 209 214 216 219 222 225 224 220 219 221 223 224 216 215 215 210 207 222 232 229 224 229 237 213 226 251 257 265 274 281 291 303
317 304 274 251 233 221 213 207 205 205 205 208 213 218 223 224 224 225 223 222 220 224 219 215 204 209 217 210 207 223 227 232 237 236 234 236 236 245 252 260 268 275 279 279
339 329 302 261 237 222 214 208 203 203 206 209 213 219 224 227 226 222 221 223 218 219 226 207 203 207 210 207 198 226 233 232 234 239 241 239 241 249 261 272 275 271 268 269
348 343 328 290 247 226 216 211 206 205 205 208 213 218 223 225 223 220 220 229 225 197 209 215 210 208 203 203 211 222 233 238 237 237 238 238 239 250 262 265 262 260 261 264
336 340 338 323 282 245 224 214 212 213 213 211 210 214 220 225 224 219 219 214 224 199 205 221 211 188 186 209 225 227 233 238 238 234 227 221 226 243 252 255 252 251 259 265
309 316 322 325 313 266 232 217 211 217 224 226 224 222 224 227 227 225 226 212 205 192 208 215 193 182 189 216 225 232 234 231 223 215 211 220 237 246 249 250 251 252 255 259
282 286 289 289 283 273 264 237 215 213 222 225 228 227 228 231 234 227 221 218 196 185 209 203 184 185 201 220 225 228 225 212 202 197 209 234 247 250 249 248 248 250 251 250
268 264 260 259 268 273 269 259 244 225 222 225 226 228 231 229 232 233 220 218 208 198 214 211 185 188 211 220 221 216 208 190 186 201 222 240 250 253 254 255 251 247 246 246
269 263 256 249 242 240 244 245 244 238 231 231 238 243 248 245 235 229 225 219 210 202 212 217 201 195 207 209 204 194 188 183 189 205 222 235 247 253 255 246 244 234 235 240